Time,TemperatureF,DewpointF,PressureIn,WindDirection,WindDirectionDegrees,WindSpeedMPH,WindSpeedGustMPH,Humidity,HourlyPrecipIn,Conditions,Clouds,dailyrainin,SoftwareType,DateUTC
2013-03-17 00:08:00,49.6,41.3,29.87,NNE,22,4.3,-999.0,73,-99.99,,,0.00,Acu-Link.com,2013-03-17 05:08:00,
2013-03-17 00:23:00,48.7,40.8,29.88,NNW,337,3.1,-999.0,74,-99.99,,,0.00,Acu-Link.com,2013-03-17 05:23:00,
2013-03-17 00:38:00,48.7,41.2,29.87,WNW,292,4.3,-999.0,75,-99.99,,,0.00,Acu-Link.com,2013-03-17 05:38:00,
2013-03-17 00:53:00,48.4,41.2,29.87,NE,45,5.1,-999.0,76,-99.99,,,0.00,Acu-Link.com,2013-03-17 05:53:00,
2013-03-17 01:08:00,48.0,40.8,29.87,NNE,22,5.1,-999.0,76,-99.99,,,0.00,Acu-Link.com,2013-03-17 06:08:00,
2013-03-17 01:24:00,48.0,40.8,29.86,NNW,337,6.3,-999.0,76,-99.99,,,0.00,Acu-Link.com,2013-03-17 06:24:00,
2013-03-17 01:39:00,48.0,40.8,29.86,NW,315,5.8,-999.0,76,-99.99,,,0.00,Acu-Link.com,2013-03-17 06:39:00,
2013-03-17 01:54:00,47.8,40.6,29.86,NW,315,5.1,-999.0,76,-99.99,,,0.00,Acu-Link.com,2013-03-17 06:54:00,
2013-03-17 02:09:00,47.8,40.6,29.86,NNE,22,5.1,-999.0,76,-99.99,,,0.00,Acu-Link.com,2013-03-17 07:09:00,
2013-03-17 02:25:00,47.5,40.6,29.86,NNW,337,6.7,-999.0,77,-99.99,,,0.00,Acu-Link.com,2013-03-17 07:25:00,
2013-03-17 02:40:00,47.3,40.5,29.86,North,0,4.3,-999.0,77,-99.99,,,0.00,Acu-Link.com,2013-03-17 07:40:00,
2013-03-17 02:55:00,47.3,40.5,29.86,NW,315,5.1,-999.0,77,-99.99,,,0.00,Acu-Link.com,2013-03-17 07:55:00,
2013-03-17 03:10:00,47.3,40.5,29.85,NNE,22,6.3,-999.0,77,-99.99,,,0.00,Acu-Link.com,2013-03-17 08:10:00,
2013-03-17 03:25:00,46.9,40.1,29.86,NNW,337,6.7,-999.0,77,-99.99,,,0.00,Acu-Link.com,2013-03-17 08:25:00,
2013-03-17 03:41:00,46.6,39.8,29.86,NNE,22,5.8,-999.0,77,-99.99,,,0.00,Acu-Link.com,2013-03-17 08:41:00,
2013-03-17 03:56:00,46.4,39.9,29.86,NNW,337,6.3,-999.0,78,-99.99,,,0.00,Acu-Link.com,2013-03-17 08:56:00,
2013-03-17 04:11:00,46.0,39.6,29.86,NNW,337,4.7,-999.0,78,-99.99,,,0.00,Acu-Link.com,2013-03-17 09:11:00,
2013-03-17 04:26:00,46.0,39.6,29.84,NE,45,4.7,-999.0,78,-99.99,,,0.00,Acu-Link.com,2013-03-17 09:26:00,
2013-03-17 04:41:00,45.7,39.5,29.84,NNE,22,3.1,-999.0,79,-99.99,,,0.00,Acu-Link.com,2013-03-17 09:41:00,
2013-03-17 04:57:00,45.3,39.2,29.84,NNW,337,8.9,-999.0,79,-99.99,,,0.00,Acu-Link.com,2013-03-17 09:57:00,
2013-03-17 05:27:00,45.1,39.7,29.85,West,270,4.3,-999.0,81,-99.99,,,0.00,Acu-Link.com,2013-03-17 10:27:00,
2013-03-17 05:42:00,45.0,39.5,29.87,NNW,337,6.7,-999.0,81,-99.99,,,0.00,Acu-Link.com,2013-03-17 10:42:00,
2013-03-17 05:57:00,44.6,39.5,29.86,NNE,22,5.8,-999.0,82,-99.99,,,0.00,Acu-Link.com,2013-03-17 10:57:00,
2013-03-17 06:13:00,44.2,40.0,29.89,North,0,3.8,-999.0,85,-99.99,,,0.00,Acu-Link.com,2013-03-17 11:13:00,
2013-03-17 06:28:00,43.7,39.8,29.89,WNW,292,5.8,-999.0,86,-99.99,,,0.00,Acu-Link.com,2013-03-17 11:28:00,
2013-03-17 06:43:00,43.0,40.3,29.89,North,0,7.8,-999.0,90,-99.99,,,0.00,Acu-Link.com,2013-03-17 11:43:00,
2013-03-17 06:58:00,42.4,40.6,29.90,NNW,337,4.7,-999.0,93,-99.99,,,0.00,Acu-Link.com,2013-03-17 11:58:00,
2013-03-17 07:14:00,41.7,40.9,29.90,North,0,4.7,-999.0,97,-99.99,,,0.00,Acu-Link.com,2013-03-17 12:14:00,
2013-03-17 07:29:00,41.4,41.1,29.91,North,0,4.7,-999.0,99,-99.99,,,0.00,Acu-Link.com,2013-03-17 12:29:00,
2013-03-17 07:44:00,41.2,40.9,29.90,North,0,5.1,-999.0,99,-99.99,,,0.00,Acu-Link.com,2013-03-17 12:44:00,
2013-03-17 07:59:00,40.8,40.6,29.90,NNE,22,5.8,-999.0,99,-99.99,,,0.00,Acu-Link.com,2013-03-17 12:59:00,
2013-03-17 08:14:00,40.5,40.2,29.90,NE,45,7.4,-999.0,99,-99.99,,,0.01,Acu-Link.com,2013-03-17 13:14:00,
2013-03-17 08:30:00,40.3,40.0,29.90,NNW,337,7.4,-999.0,99,-99.99,,,0.01,Acu-Link.com,2013-03-17 13:30:00,
2013-03-17 08:45:00,40.3,40.0,29.90,North,0,5.8,-999.0,99,-99.99,,,0.01,Acu-Link.com,2013-03-17 13:45:00,
2013-03-17 09:00:00,40.3,40.0,29.89,NNE,22,4.3,-999.0,99,-99.99,,,0.01,Acu-Link.com,2013-03-17 14:00:00,
2013-03-17 09:15:00,40.5,40.2,29.89,SSW,202,3.8,-999.0,99,-99.99,,,0.02,Acu-Link.com,2013-03-17 14:15:00,
2013-03-17 09:30:00,40.5,40.2,29.89,South,180,5.8,-999.0,99,-99.99,,,0.02,Acu-Link.com,2013-03-17 14:30:00,
2013-03-17 09:46:00,40.8,40.6,29.89,NE,45,6.3,-999.0,99,-99.99,,,0.02,Acu-Link.com,2013-03-17 14:46:00,
2013-03-17 10:01:00,40.8,40.6,29.88,WNW,292,4.3,-999.0,99,-99.99,,,0.02,Acu-Link.com,2013-03-17 15:01:00,
2013-03-17 10:16:00,41.0,40.7,29.88,North,0,1.6,-999.0,99,-99.99,,,0.02,Acu-Link.com,2013-03-17 15:16:00,
2013-03-17 10:31:00,41.0,40.7,29.88,NNE,22,4.3,-999.0,99,-99.99,,,0.02,Acu-Link.com,2013-03-17 15:31:00,
2013-03-17 10:47:00,41.2,40.9,29.87,NNE,22,2.7,-999.0,99,-99.99,,,0.04,Acu-Link.com,2013-03-17 15:47:00,
2013-03-17 11:02:00,41.4,41.1,29.86,NNE,22,4.7,-999.0,99,-99.99,,,0.04,Acu-Link.com,2013-03-17 16:02:00,
2013-03-17 11:17:00,41.4,41.1,29.86,NE,45,2.7,-999.0,99,-99.99,,,0.04,Acu-Link.com,2013-03-17 16:17:00,
2013-03-17 11:32:00,41.4,41.1,29.86,SSW,202,2.7,-999.0,99,-99.99,,,0.04,Acu-Link.com,2013-03-17 16:32:00,
2013-03-17 11:47:00,41.2,40.9,29.86,NNW,337,3.1,-999.0,99,-99.99,,,0.04,Acu-Link.com,2013-03-17 16:47:00,
2013-03-17 12:03:00,41.2,40.9,29.85,NNW,337,3.1,-999.0,99,-99.99,,,0.05,Acu-Link.com,2013-03-17 17:03:00,
2013-03-17 12:18:00,41.4,41.1,29.84,ENE,67,4.7,-999.0,99,-99.99,,,0.06,Acu-Link.com,2013-03-17 17:18:00,
2013-03-17 12:33:00,41.5,41.3,29.83,NE,45,3.8,-999.0,99,-99.99,,,0.07,Acu-Link.com,2013-03-17 17:33:00,
2013-03-17 12:48:00,42.1,41.8,29.80,East,90,4.7,-999.0,99,-99.99,,,0.07,Acu-Link.com,2013-03-17 17:48:00,
2013-03-17 13:03:00,42.3,42.0,29.80,NE,45,2.2,-999.0,99,-99.99,,,0.07,Acu-Link.com,2013-03-17 18:03:00,
2013-03-17 13:19:00,42.4,42.2,29.80,West,270,3.1,-999.0,99,-99.99,,,0.07,Acu-Link.com,2013-03-17 18:19:00,
2013-03-17 13:34:00,42.4,42.2,29.79,West,270,3.1,-999.0,99,-99.99,,,0.07,Acu-Link.com,2013-03-17 18:34:00,
2013-03-17 13:49:00,42.6,42.4,29.78,SW,225,4.3,-999.0,99,-99.99,,,0.07,Acu-Link.com,2013-03-17 18:49:00,
2013-03-17 14:04:00,42.8,42.5,29.78,SE,135,3.1,-999.0,99,-99.99,,,0.07,Acu-Link.com,2013-03-17 19:04:00,
2013-03-17 14:20:00,42.8,42.5,29.77,East,90,2.7,-999.0,99,-99.99,,,0.07,Acu-Link.com,2013-03-17 19:20:00,
2013-03-17 14:35:00,42.6,42.4,29.77,South,180,2.2,-999.0,99,-99.99,,,0.07,Acu-Link.com,2013-03-17 19:35:00,
2013-03-17 14:50:00,43.0,42.7,29.75,NE,45,4.3,-999.0,99,-99.99,,,0.07,Acu-Link.com,2013-03-17 19:50:00,
2013-03-17 15:05:00,42.8,42.5,29.74,SSE,157,1.6,-999.0,99,-99.99,,,0.07,Acu-Link.com,2013-03-17 20:05:00,
2013-03-17 15:20:00,43.2,42.9,29.75,NNE,22,2.2,-999.0,99,-99.99,,,0.07,Acu-Link.com,2013-03-17 20:20:00,
2013-03-17 15:36:00,42.8,42.5,29.74,West,270,2.7,-999.0,99,-99.99,,,0.07,Acu-Link.com,2013-03-17 20:36:00,
2013-03-17 15:51:00,43.0,42.7,29.72,SW,225,2.7,-999.0,99,-99.99,,,0.09,Acu-Link.com,2013-03-17 20:51:00,
2013-03-17 16:06:00,43.2,42.9,29.72,WNW,292,2.2,-999.0,99,-99.99,,,0.11,Acu-Link.com,2013-03-17 21:06:00,
2013-03-17 16:21:00,43.0,42.7,29.72,North,0,2.7,-999.0,99,-99.99,,,0.17,Acu-Link.com,2013-03-17 21:21:00,
2013-03-17 16:36:00,43.2,42.9,29.72,WNW,292,2.7,-999.0,99,-99.99,,,0.19,Acu-Link.com,2013-03-17 21:36:00,
2013-03-17 16:52:00,43.2,42.9,29.72,NNW,337,3.1,-999.0,99,-99.99,,,0.19,Acu-Link.com,2013-03-17 21:52:00,
2013-03-17 17:07:00,43.5,43.3,29.71,NNW,337,3.1,-999.0,99,-99.99,,,0.19,Acu-Link.com,2013-03-17 22:07:00,
2013-03-17 17:22:00,43.5,43.3,29.71,North,0,4.3,-999.0,99,-99.99,,,0.20,Acu-Link.com,2013-03-17 22:22:00,
2013-03-17 17:37:00,43.3,43.1,29.71,North,0,3.8,-999.0,99,-99.99,,,0.20,Acu-Link.com,2013-03-17 22:37:00,
2013-03-17 17:53:00,43.2,42.9,29.71,NNE,22,4.3,-999.0,99,-99.99,,,0.21,Acu-Link.com,2013-03-17 22:53:00,
2013-03-17 18:08:00,43.2,42.9,29.71,WNW,292,2.7,-999.0,99,-99.99,,,0.21,Acu-Link.com,2013-03-17 23:08:00,
2013-03-17 18:23:00,42.8,42.5,29.71,North,0,2.2,-999.0,99,-99.99,,,0.21,Acu-Link.com,2013-03-17 23:23:00,
2013-03-17 18:38:00,42.8,42.5,29.71,NNW,337,2.7,-999.0,99,-99.99,,,0.21,Acu-Link.com,2013-03-17 23:38:00,
2013-03-17 18:53:00,43.2,42.9,29.72,NNE,22,0.0,-999.0,99,-99.99,,,0.21,Acu-Link.com,2013-03-17 23:53:00,
2013-03-17 19:09:00,43.2,42.9,29.72,WNW,292,0.0,-999.0,99,-99.99,,,0.21,Acu-Link.com,2013-03-18 00:09:00,
2013-03-17 19:24:00,43.0,42.7,29.72,North,0,1.1,-999.0,99,-99.99,,,0.21,Acu-Link.com,2013-03-18 00:24:00,
2013-03-17 19:39:00,43.2,42.9,29.73,North,0,0.0,-999.0,99,-99.99,,,0.21,Acu-Link.com,2013-03-18 00:39:00,
2013-03-17 19:54:00,43.2,42.9,29.73,WSW,247,0.0,-999.0,99,-99.99,,,0.21,Acu-Link.com,2013-03-18 00:54:00,
2013-03-17 20:09:00,43.2,42.9,29.73,NW,315,0.0,-999.0,99,-99.99,,,0.21,Acu-Link.com,2013-03-18 01:09:00,
2013-03-17 20:25:00,43.0,42.7,29.72,West,270,0.0,-999.0,99,-99.99,,,0.21,Acu-Link.com,2013-03-18 01:25:00,
2013-03-17 20:40:00,42.8,42.5,29.72,East,90,0.0,-999.0,99,-99.99,,,0.21,Acu-Link.com,2013-03-18 01:40:00,
2013-03-17 20:55:00,42.8,42.5,29.73,NW,315,0.0,-999.0,99,-99.99,,,0.21,Acu-Link.com,2013-03-18 01:55:00,
2013-03-17 21:10:00,42.8,42.5,29.73,SSW,202,0.0,-999.0,99,-99.99,,,0.21,Acu-Link.com,2013-03-18 02:10:00,
2013-03-17 21:25:00,42.6,42.4,29.73,North,0,0.0,-999.0,99,-99.99,,,0.21,Acu-Link.com,2013-03-18 02:25:00,
2013-03-17 21:41:00,42.6,42.4,29.73,NNE,22,0.0,-999.0,99,-99.99,,,0.21,Acu-Link.com,2013-03-18 02:41:00,
2013-03-17 22:11:00,42.6,42.4,29.74,ENE,67,0.0,-999.0,99,-99.99,,,0.22,Acu-Link.com,2013-03-18 03:11:00,
2013-03-17 22:26:00,42.6,42.4,29.74,East,90,0.0,-999.0,99,-99.99,,,0.22,Acu-Link.com,2013-03-18 03:26:00,
2013-03-17 22:41:00,42.6,42.4,29.74,South,180,0.0,-999.0,99,-99.99,,,0.22,Acu-Link.com,2013-03-18 03:41:00,
2013-03-17 22:57:00,42.8,42.5,29.76,SSW,202,0.0,-999.0,99,-99.99,,,0.22,Acu-Link.com,2013-03-18 03:57:00,
2013-03-17 23:12:00,42.8,42.5,29.75,SW,225,0.0,-999.0,99,-99.99,,,0.22,Acu-Link.com,2013-03-18 04:12:00,
2013-03-17 23:27:00,43.0,42.7,29.75,SSE,157,0.0,-999.0,99,-99.99,,,0.24,Acu-Link.com,2013-03-18 04:27:00,
2013-03-17 23:42:00,43.0,42.7,29.75,NNE,22,0.0,-999.0,99,-99.99,,,0.24,Acu-Link.com,2013-03-18 04:42:00,
2013-03-17 23:57:00,43.2,42.9,29.76,SSW,202,0.0,-999.0,99,-99.99,,,0.24,Acu-Link.com,2013-03-18 04:57:00,